Total_Precipitation_Accumulation
0.02 0.02 0.01 0.01 0.00 0.00 0.00 0.00 0.00 0.00 0.00 0.00 0.00 0.00 0.00 0.00 0.00 0.00 0.00 0.00 0.00 0.01 0.06 0.12 0.17 0.18 0.18 0.16 0.13 0.09 0.09 0.09 0.12 0.14 0.13 0.12 0.14 0.15 0.18 0.20 0.20 0.20 0.20 0.20 0.22 0.22 0.19 0.17 0.16
0.03 0.02 0.02 0.01 0.01 0.00 0.00 0.00 0.00 0.00 0.00 0.00 0.00 0.00 0.00 0.00 0.00 0.00 0.00 0.00 0.00 0.01 0.05 0.07 0.11 0.15 0.16 0.14 0.11 0.09 0.08 0.08 0.11 0.11 0.10 0.10 0.12 0.13 0.14 0.15 0.14 0.14 0.15 0.14 0.14 0.13 0.14 0.12 0.10
0.05 0.05 0.03 0.02 0.01 0.00 0.00 0.00 0.00 0.00 0.00 0.00 0.00 0.00 0.00 0.00 0.00 0.00 0.00 0.00 0.00 0.02 0.04 0.07 0.12 0.13 0.13 0.12 0.09 0.07 0.07 0.08 0.11 0.10 0.09 0.09 0.10 0.10 0.11 0.11 0.10 0.08 0.08 0.09 0.10 0.11 0.12 0.12 0.10
0.05 0.06 0.05 0.02 0.01 0.00 0.00 0.00 0.00 0.00 0.00 0.00 0.00 0.00 0.00 0.00 0.00 0.00 0.00 0.00 0.00 0.01 0.02 0.06 0.11 0.12 0.11 0.10 0.07 0.06 0.06 0.07 0.10 0.08 0.07 0.08 0.09 0.09 0.08 0.07 0.06 0.05 0.06 0.07 0.08 0.09 0.12 0.12 0.12
0.06 0.06 0.05 0.03 0.00 0.00 0.00 0.00 0.00 0.00 0.00 0.00 0.00 0.00 0.00 0.00 0.00 0.00 0.00 0.00 0.00 0.01 0.02 0.05 0.11 0.12 0.10 0.09 0.07 0.06 0.06 0.07 0.07 0.06 0.06 0.06 0.08 0.09 0.08 0.05 0.05 0.06 0.05 0.07 0.07 0.08 0.10 0.13 0.14
0.09 0.07 0.04 0.02 0.01 0.00 0.00 0.00 0.00 0.00 0.00 0.00 0.00 0.00 0.00 0.00 0.00 0.00 0.00 0.00 0.00 0.01 0.03 0.07 0.13 0.13 0.10 0.10 0.07 0.06 0.06 0.07 0.06 0.05 0.05 0.04 0.05 0.06 0.06 0.05 0.06 0.08 0.07 0.08 0.06 0.06 0.07 0.10 0.13
0.13 0.08 0.03 0.01 0.01 0.00 0.00 0.00 0.00 0.00 0.00 0.00 0.00 0.00 0.00 0.00 0.00 0.00 0.00 0.00 0.01 0.01 0.03 0.07 0.11 0.12 0.12 0.11 0.08 0.06 0.06 0.07 0.06 0.05 0.05 0.04 0.03 0.03 0.03 0.03 0.05 0.07 0.06 0.08 0.07 0.06 0.06 0.06 0.08
0.18 0.15 0.06 0.01 0.01 0.00 0.01 0.01 0.00 0.00 0.00 0.00 0.00 0.00 0.00 0.00 0.00 0.00 0.01 0.01 0.02 0.03 0.04 0.07 0.09 0.09 0.10 0.10 0.08 0.07 0.07 0.07 0.06 0.05 0.04 0.03 0.03 0.04 0.03 0.02 0.03 0.04 0.05 0.07 0.08 0.07 0.06 0.06 0.05
0.28 0.26 0.10 0.02 0.01 0.00 0.00 0.01 0.01 0.00 0.00 0.00 0.00 0.00 0.00 0.00 0.00 0.01 0.02 0.03 0.04 0.05 0.05 0.07 0.08 0.08 0.08 0.08 0.07 0.08 0.08 0.07 0.06 0.04 0.03 0.02 0.02 0.02 0.02 0.02 0.02 0.03 0.05 0.05 0.06 0.06 0.07 0.05 0.03
0.36 0.25 0.09 0.03 0.02 0.02 0.02 0.01 0.01 0.02 0.01 0.00 0.00 0.00 0.00 0.00 0.01 0.01 0.02 0.02 0.03 0.04 0.06 0.07 0.07 0.07 0.07 0.07 0.07 0.08 0.07 0.06 0.04 0.02 0.02 0.01 0.01 0.01 0.00 0.01 0.02 0.03 0.05 0.06 0.07 0.06 0.05 0.04 0.02
0.30 0.20 0.07 0.04 0.05 0.06 0.04 0.02 0.02 0.03 0.02 0.01 0.00 0.00 0.00 0.01 0.01 0.01 0.01 0.02 0.02 0.03 0.06 0.07 0.07 0.07 0.07 0.06 0.06 0.06 0.06 0.05 0.03 0.02 0.01 0.01 0.01 0.00 0.00 0.01 0.01 0.02 0.02 0.04 0.08 0.11 0.12 0.14 0.13
0.24 0.15 0.08 0.06 0.07 0.09 0.08 0.06 0.04 0.02 0.02 0.01 0.01 0.00 0.01 0.01 0.01 0.02 0.01 0.02 0.03 0.05 0.07 0.08 0.09 0.09 0.08 0.06 0.05 0.04 0.04 0.03 0.02 0.01 0.01 0.01 0.01 0.00 0.00 0.01 0.01 0.01 0.01 0.01 0.03 0.07 0.14 0.19 0.20
0.22 0.15 0.09 0.06 0.06 0.08 0.09 0.08 0.06 0.03 0.01 0.01 0.01 0.01 0.01 0.02 0.02 0.02 0.02 0.03 0.04 0.05 0.07 0.09 0.10 0.10 0.09 0.07 0.05 0.04 0.03 0.03 0.01 0.01 0.01 0.00 0.01 0.01 0.00 0.00 0.01 0.00 0.00 0.00 0.00 0.01 0.03 0.07 0.12
0.20 0.17 0.14 0.09 0.07 0.07 0.09 0.08 0.06 0.03 0.01 0.01 0.01 0.02 0.02 0.02 0.03 0.04 0.04 0.05 0.05 0.06 0.08 0.09 0.10 0.10 0.10 0.08 0.06 0.04 0.03 0.03 0.02 0.01 0.01 0.01 0.01 0.01 0.01 0.01 0.01 0.01 0.01 0.00 0.00 0.00 0.00 0.00 0.01
0.21 0.23 0.19 0.12 0.07 0.06 0.10 0.09 0.06 0.03 0.02 0.02 0.02 0.02 0.02 0.02 0.03 0.04 0.04 0.05 0.06 0.06 0.08 0.11 0.10 0.11 0.10 0.09 0.07 0.05 0.04 0.03 0.03 0.02 0.01 0.01 0.01 0.01 0.01 0.01 0.01 0.01 0.01 0.00 0.00 0.00 0.00 0.00 0.00
0.28 0.32 0.25 0.14 0.09 0.09 0.15 0.10 0.04 0.03 0.03 0.03 0.03 0.02 0.02 0.02 0.02 0.03 0.04 0.06 0.08 0.08 0.09 0.12 0.13 0.13 0.12 0.11 0.09 0.07 0.05 0.04 0.04 0.03 0.02 0.01 0.01 0.01 0.01 0.01 0.01 0.01 0.00 0.01 0.01 0.01 0.01 0.01 0.00
0.42 0.35 0.20 0.13 0.10 0.12 0.16 0.11 0.03 0.02 0.04 0.03 0.02 0.02 0.02 0.02 0.02 0.02 0.03 0.05 0.08 0.10 0.10 0.12 0.14 0.14 0.14 0.13 0.11 0.08 0.06 0.06 0.05 0.03 0.03 0.02 0.01 0.01 0.01 0.01 0.01 0.01 0.01 0.01 0.01 0.01 0.00 0.01 0.00
0.41 0.26 0.15 0.11 0.09 0.12 0.15 0.10 0.04 0.02 0.03 0.03 0.02 0.02 0.01 0.02 0.01 0.01 0.02 0.03 0.06 0.10 0.14 0.15 0.16 0.16 0.16 0.17 0.14 0.12 0.09 0.06 0.04 0.03 0.03 0.02 0.01 0.01 0.01 0.01 0.01 0.01 0.01 0.01 0.01 0.01 0.00 0.00 0.01
0.27 0.23 0.17 0.10 0.09 0.11 0.11 0.08 0.04 0.02 0.02 0.02 0.02 0.01 0.01 0.01 0.01 0.02 0.03 0.03 0.05 0.09 0.15 0.17 0.18 0.20 0.21 0.20 0.17 0.13 0.09 0.05 0.03 0.02 0.02 0.02 0.01 0.01 0.01 0.01 0.01 0.01 0.01 0.01 0.01 0.00 0.01 0.01 0.01
0.35 0.32 0.22 0.12 0.10 0.13 0.11 0.06 0.03 0.03 0.02 0.02 0.01 0.01 0.01 0.01 0.01 0.02 0.03 0.04 0.05 0.06 0.09 0.15 0.18 0.18 0.21 0.20 0.17 0.12 0.08 0.05 0.03 0.02 0.02 0.02 0.01 0.01 0.01 0.01 0.01 0.02 0.01 0.01 0.00 0.01 0.02 0.02 0.01
0.42 0.32 0.21 0.14 0.13 0.16 0.15 0.10 0.02 0.01 0.02 0.01 0.01 0.01 0.00 0.00 0.01 0.01 0.02 0.03 0.04 0.05 0.07 0.10 0.14 0.18 0.18 0.20 0.20 0.18 0.14 0.10 0.06 0.03 0.02 0.02 0.02 0.01 0.01 0.01 0.02 0.02 0.02 0.01 0.01 0.02 0.04 0.04 0.02
0.40 0.22 0.17 0.18 0.26 0.28 0.20 0.19 0.04 0.01 0.01 0.01 0.01 0.01 0.01 0.01 0.01 0.01 0.02 0.02 0.03 0.03 0.04 0.08 0.12 0.16 0.20 0.20 0.20 0.18 0.15 0.10 0.05 0.03 0.02 0.02 0.02 0.02 0.01 0.01 0.02 0.02 0.01 0.02 0.02 0.03 0.04 0.08 0.08
0.29 0.20 0.21 0.25 0.33 0.34 0.22 0.21 0.06 0.01 0.01 0.01 0.01 0.00 0.01 0.01 0.01 0.01 0.01 0.02 0.02 0.03 0.05 0.07 0.12 0.15 0.21 0.21 0.18 0.18 0.14 0.10 0.06 0.04 0.04 0.03 0.02 0.02 0.02 0.02 0.02 0.02 0.01 0.02 0.03 0.04 0.05 0.08 0.11
0.25 0.29 0.35 0.39 0.55 0.56 0.19 0.14 0.07 0.03 0.02 0.01 0.00 0.01 0.01 0.02 0.02 0.02 0.02 0.02 0.03 0.04 0.06 0.07 0.10 0.13 0.18 0.24 0.21 0.20 0.15 0.11 0.09 0.05 0.04 0.04 0.03 0.02 0.03 0.02 0.02 0.02 0.02 0.03 0.04 0.05 0.06 0.06 0.08
0.44 0.63 0.92 0.93 0.87 0.48 0.08 0.08 0.07 0.03 0.01 0.01 0.01 0.01 0.01 0.02 0.02 0.02 0.04 0.05 0.05 0.05 0.05 0.06 0.08 0.11 0.13 0.20 0.25 0.21 0.17 0.11 0.08 0.06 0.04 0.04 0.03 0.03 0.02 0.02 0.02 0.02 0.03 0.03 0.04 0.06 0.06 0.06 0.08
0.44 0.55 0.70 0.63 0.38 0.13 0.04 0.06 0.05 0.03 0.01 0.00 0.01 0.01 0.01 0.01 0.02 0.02 0.02 0.04 0.06 0.06 0.05 0.05 0.06 0.10 0.09 0.12 0.21 0.26 0.20 0.13 0.08 0.05 0.05 0.04 0.03 0.03 0.02 0.02 0.02 0.02 0.03 0.04 0.05 0.06 0.06 0.07 0.10
0.33 0.36 0.33 0.40 0.25 0.14 0.08 0.04 0.04 0.03 0.02 0.01 0.01 0.00 0.01 0.01 0.02 0.02 0.01 0.02 0.03 0.06 0.06 0.05 0.06 0.09 0.10 0.07 0.12 0.26 0.30 0.16 0.09 0.06 0.04 0.04 0.04 0.03 0.03 0.02 0.02 0.03 0.03 0.04 0.07 0.08 0.09 0.11 0.12
0.29 0.34 0.43 0.57 0.44 0.21 0.08 0.05 0.07 0.06 0.04 0.02 0.01 0.01 0.01 0.01 0.02 0.01 0.01 0.01 0.02 0.04 0.05 0.06 0.05 0.08 0.11 0.08 0.08 0.16 0.33 0.29 0.12 0.07 0.05 0.04 0.03 0.03 0.03 0.03 0.02 0.03 0.04 0.05 0.08 0.09 0.11 0.14 0.15
0.34 0.43 0.57 0.58 0.38 0.23 0.12 0.08 0.09 0.08 0.05 0.03 0.02 0.01 0.01 0.01 0.01 0.01 0.00 0.00 0.01 0.03 0.04 0.05 0.05 0.07 0.10 0.09 0.08 0.09 0.19 0.33 0.24 0.11 0.06 0.04 0.03 0.03 0.04 0.03 0.04 0.06 0.08 0.10 0.12 0.12 0.14 0.17 0.19
0.34 0.37 0.42 0.50 0.37 0.18 0.12 0.07 0.04 0.04 0.04 0.03 0.02 0.02 0.01 0.01 0.01 0.01 0.01 0.00 0.01 0.01 0.02 0.03 0.04 0.05 0.07 0.08 0.08 0.09 0.12 0.21 0.29 0.18 0.09 0.05 0.04 0.04 0.04 0.04 0.06 0.10 0.13 0.15 0.17 0.18 0.17 0.20 0.22